Chatham, MA

8:29 PM EDT on May 20, 2018 (GMT -0400)
Chatham Municipal

Weather History for KCQX - September, 2013

Change the Weather History Date:

Tuesday, September 24, 2013

  Actual Average Record
Temperature  
Mean Temperature 54 °F -  
Max Temperature 62 °F 66 °F 76 °F (1984)
Min Temperature 46 °F 53 °F 42 °F (1998)
Degree Days  
Heating Degree Days 12    
Growing Degree Days 4 (Base 50)    
Moisture  
Dew Point 43 °F    
Average Humidity 71    
Maximum Humidity 87    
Minimum Humidity 50    
Precipitation  
Precipitation 0.00 in - - ()
Sea Level Pressure  
Sea Level Pressure 29.92 in    
Wind  
Wind Speed 3 mph (NW)    
Max Wind Speed 10 mph    
Max Gust Speed 18 mph    
Visibility 10 miles    
Events      
Averages and records for this station are not official NWS values.
T = Trace of Precipitation, MM = Missing Value Source: NWS Daily Summary

Daily Weather History Graph

Daily Weather History Graph

Search for Another Location

Airport or City:

Astronomy

Sep. 24, 2013 Rise Set
Actual Time 6:29 AM EDT 6:33 PM EDT
Civil Twilight 6:01 AM EDT 7:01 PM EDT
Nautical Twilight 5:29 AM EDT 7:33 PM EDT
Astronomical Twilight 4:56 AM EDT 8:06 PM EDT
Moon 9:44 PM EDT (9/24) 11:45 AM EDT (9/24)
Length of Visible Light 12h 59m
Length of Day
12h 03m
Waning Gibbous, 73% of the Moon is Illuminated
Sep 24
Waning Gibbous
Sep 26
Last Quarter
Oct 4
New
Oct 11
First Quarter
Oct 18
Full

Hourly Weather History & Observations

Time (EDT) Temp. Dew Point Humidity Pressure Visibility Wind Dir Wind Speed Gust Speed Precip Events Conditions
12:52 AM 50.0 °F 42.1 °F 74% 29.98 in 10.0 mi Variable 3.5 mph - N/A   Clear
1:52 AM 46.0 °F 41.0 °F 83% 29.97 in 10.0 mi Calm Calm - N/A   Scattered Clouds
2:00 AM 46.4 °F 42.8 °F 87% 29.97 in 10.0 mi Calm Calm - N/A   Mostly Cloudy
2:35 AM 46.4 °F 42.8 °F 87% 29.96 in 10.0 mi Calm Calm - N/A   Overcast
2:52 AM 46.9 °F 43.0 °F 86% 29.96 in 10.0 mi Calm Calm - N/A   Overcast
3:52 AM 48.9 °F 44.1 °F 83% 29.95 in 10.0 mi Calm Calm - N/A   Overcast
4:18 AM 48.2 °F 42.8 °F 82% 29.95 in 10.0 mi Calm Calm - N/A   Overcast
4:52 AM 50.0 °F 44.1 °F 80% 29.95 in 10.0 mi Calm Calm - N/A   Overcast
5:09 AM 48.2 °F 44.6 °F 87% 29.94 in 10.0 mi West 3.5 mph - N/A   Overcast
5:16 AM 50.0 °F 44.6 °F 82% 29.94 in 10.0 mi Variable 4.6 mph - N/A   Overcast
5:52 AM 48.0 °F 43.0 °F 83% 29.95 in 10.0 mi West 3.5 mph - N/A   Mostly Cloudy
6:52 AM 48.0 °F 43.0 °F 83% 29.95 in 10.0 mi Variable 4.6 mph - N/A   Mostly Cloudy
7:52 AM 50.0 °F 43.0 °F 77% 29.95 in 10.0 mi Variable 5.8 mph - N/A   Overcast
8:52 AM 52.0 °F 42.1 °F 69% 29.94 in 10.0 mi Variable 6.9 mph 18.4 mph N/A   Scattered Clouds
9:01 AM 51.8 °F 42.8 °F 71% 29.93 in 10.0 mi Variable 6.9 mph 16.1 mph N/A   Mostly Cloudy
9:52 AM 55.0 °F 42.1 °F 62% 29.92 in 10.0 mi NW 10.4 mph - N/A   Mostly Cloudy
10:05 AM 55.4 °F 42.8 °F 63% 29.91 in 10.0 mi WNW 8.1 mph - N/A   Scattered Clouds
10:52 AM 57.0 °F 42.1 °F 57% 29.91 in 10.0 mi WNW 6.9 mph - N/A   Mostly Cloudy
11:52 AM 55.9 °F 41.0 °F 57% 29.89 in 10.0 mi Variable 6.9 mph - N/A   Mostly Cloudy
12:00 PM 57.2 °F 42.8 °F 59% 29.88 in 10.0 mi Variable 5.8 mph - N/A   Scattered Clouds
12:52 PM 57.9 °F 41.0 °F 53% 29.89 in 10.0 mi Variable 6.9 mph - N/A   Clear
1:52 PM 59.0 °F 42.1 °F 53% 29.86 in 10.0 mi NW 8.1 mph - N/A   Clear
2:52 PM 60.1 °F 42.1 °F 51% 29.85 in 10.0 mi Variable 4.6 mph - N/A   Clear
3:52 PM 61.0 °F 42.1 °F 50% 29.85 in 10.0 mi NE 3.5 mph - N/A   Clear
4:52 PM 61.0 °F 42.1 °F 50% 29.86 in 10.0 mi Variable 4.6 mph - N/A   Clear
5:52 PM 57.0 °F 44.1 °F 62% 29.86 in 10.0 mi NE 4.6 mph - N/A   Clear
6:52 PM 55.0 °F 44.1 °F 67% 29.88 in 10.0 mi Calm Calm - N/A   Partly Cloudy
7:52 PM 54.0 °F 46.9 °F 77% 29.88 in 10.0 mi Calm Calm - N/A   Overcast
8:52 PM 55.0 °F 46.9 °F 74% 29.90 in 10.0 mi Calm Calm - N/A   Overcast
9:52 PM 54.0 °F 45.0 °F 72% 29.91 in 10.0 mi Calm Calm - N/A   Overcast
10:52 PM 54.0 °F 46.9 °F 77% 29.91 in 10.0 mi Calm Calm - N/A   Overcast
11:52 PM 50.0 °F 46.0 °F 86% 29.91 in 10.0 mi Calm Calm - N/A   Partly Cloudy